Torna al catalogo

HULIANWANG DIGUI-30

AttivoComunicazioniPO
NORAD 64283·PAYLOAD·🇨🇳 China

Lanciato Jun 5, 2025 da Taiyuan Satellite Launch Center

Loading…

Prossimi Passaggi (prossime 24 ore)

TLE

AggiornatoSource: Space-Track

Epoca: Sep 14, 2026, 22:04 UTC

1 64283U 25121A   26257.91956913  .00000033  00000-0  43477-4 0  9994
2 64283  86.5048 343.2991 0001616 108.0875 252.0435 13.24410494 62034

Traccia HULIANWANG DIGUI-30 in tempo reale con AllMySat

Download on the App Store